Location: Arroyo de San Miguel
(40.9167°N, 4.6667°W)
Time: 15:08:59
(UTC+00:00)

Okean-O - Pass Details

Date: 19 May 2025
Orbit: 628 x 631 km, 98.0° (Epoch: 17 June)

Event Time Altitude Azimuth Distance (km) Brightness Sun altitude
Exits shadow 20:03:39 - 121° (ESE) 2,257 4.7 -5.7°
Reaches altitude 10° 20:04:25 10° 115° (ESE) 2,010 4.5 -5.9°
Maximum altitude 20:07:40 21° 66° (ENE) 1,431 4.1 -6.4°
Drops below altitude 10° 20:10:56 10° 18° (NNE) 2,020 5.4 -6.9°
Sets 20:13:34 0° 3° (N) 2,932 6.5 -7.3°
